Skip Page Navigation
NASA JPL Caltech
NASA Logo - Jet Propulsion Laboratory + View the NASA Portal
+ Near-Earth Object (NEO) Program
Search JPL
JPL Home Earth Solar System Stars & Galaxies Technology
JPL Solar System Dynamics
BODIES ORBITS EPHEMERIDES TOOLS PHYSICAL DATA DISCOVERY FAQ SITE MAP
JPL Small-Body Database Browser
Search: [ help ]  
9747 (1989 AT)
Classification: Main-belt Asteroid          SPK-ID: 2009747
Ephemeris | Orbit Diagram | Orbital Elements | Physical Parameters | Discovery Circumstances | Close-Approach Data ]

[ show orbit diagram ]
Orbital Elements at Epoch 2457000.5 (2014-Dec-09.0) TDB
Reference: JPL 11 (heliocentric ecliptic J2000)
 Element Value Uncertainty (1-sigma)   Units 
e .1208011667287578 7.6928e-08  
a 3.026038731952739 3.1233e-08 AU
q 2.660489722566437 2.4313e-07 AU
i 13.2692398149398 7.9422e-06 deg
node 100.0029681322682 3.877e-05 deg
peri 357.1333804798883 5.5233e-05 deg
M 335.1667284021918 3.7549e-05 deg
tp 2457133.129944601867
(2015-Apr-20.62994460)
0.00020093 JED
period 1922.69390960498
5.26
2.9767e-05
8.15e-08
d
yr
n .1872372914906473 2.8988e-09 deg/d
Q 3.39158774133904 3.5006e-08 AU
  Orbit Determination Parameters
   # obs. used (total)      730  
   data-arc span      9426 days (25.81 yr)  
   first obs. used      1989-01-04  
   last obs. used      2014-10-26  
   planetary ephem.      DE431  
   SB-pert. ephem.      SB431-BIG16  
   condition code      0  
   fit RMS      .49417  
   data source      ORB  
   producer      Otto Matic  
   solution date      2014-Nov-10 13:10:24  

Additional Information
 Earth MOID = 1.67721 AU 
 T_jup = 3.193 
[ show covariance matrix ]

Ephemeris | Orbit Diagram | Orbital Elements | Physical Parameters | Discovery Circumstances | Close-Approach Data ]

Physical Parameter Table
Parameter Symbol Value Units Sigma Reference Notes
absolute magnitude H 12.9 mag n/a MPO267746  

9747 (1989 AT)          Discovered 1989-Jan-04 by Ueda, S., Kaneda, H. at Kushiro (399)
Reference: 19981208/Numbers.arcLast Updated: 2004-04-19

[ show close-approach data ]
Alternate Designations
 1989 AT = 1994 AA 
Ephemeris | Orbit Diagram | Orbital Elements | Physical Parameters | Discovery Circumstances | Close-Approach Data ]
ABOUT SSD CREDITS/AWARDS PRIVACY/COPYRIGHT GLOSSARY LINKS
FirstGov 2014-Dec-22 22:01 UT
(server date/time)  
NASA Home Page
Site Manager:   Donald K. Yeomans
Webmaster  Alan B. Chamberlin